Time,TemperatureF,DewpointF,PressureIn,WindDirection,WindDirectionDegrees,WindSpeedMPH,WindSpeedGustMPH,Humidity,HourlyPrecipIn,Conditions,Clouds,dailyrainin,SolarRadiationWatts/m^2,SoftwareType,DateUTC
2013-02-05 00:01:00,37.0,19.0,-100.00,South,184,3.0,8.0,48,0.00,,,0.00,0.000000,,2013-02-05 07:01:00,
2013-02-05 00:32:00,34.0,19.0,-100.00,SW,220,6.0,8.0,53,0.00,,,0.00,0.000000,,2013-02-05 07:32:00,
2013-02-05 00:42:00,34.0,19.0,-100.00,SW,220,6.0,8.0,53,0.00,,,0.00,0.000000,,2013-02-05 07:42:00,
2013-02-05 00:52:00,34.0,19.0,-100.00,SW,220,6.0,8.0,53,0.00,,,0.00,0.000000,,2013-02-05 07:52:00,
2013-02-05 01:01:00,34.0,19.0,-100.00,SW,220,6.0,8.0,53,0.00,,,0.00,0.000000,,2013-02-05 08:01:00,
2013-02-05 01:22:00,36.0,19.0,-100.00,South,183,0.0,11.0,49,0.00,,,0.00,0.000000,,2013-02-05 08:22:00,
2013-02-05 01:32:00,36.0,19.0,-100.00,South,183,0.0,11.0,49,0.00,,,0.00,0.000000,,2013-02-05 08:32:00,
2013-02-05 01:42:00,36.0,19.0,-100.00,South,183,0.0,11.0,49,0.00,,,0.00,0.000000,,2013-02-05 08:42:00,
2013-02-05 01:52:00,36.0,19.0,-100.00,South,183,0.0,11.0,49,0.00,,,0.00,0.000000,,2013-02-05 08:52:00,
2013-02-05 02:02:00,36.0,19.0,-100.00,South,183,0.0,11.0,49,0.00,,,0.00,0.000000,,2013-02-05 09:02:00,
2013-02-05 02:22:00,35.0,16.0,-100.00,SSE,166,2.0,8.0,46,0.00,,,0.00,0.000000,,2013-02-05 09:22:00,
2013-02-05 02:32:00,35.0,16.0,-100.00,SSE,166,2.0,8.0,46,0.00,,,0.00,0.000000,,2013-02-05 09:32:00,
2013-02-05 02:42:00,35.0,16.0,-100.00,SSE,166,2.0,8.0,46,0.00,,,0.00,0.000000,,2013-02-05 09:42:00,
2013-02-05 02:52:00,35.0,16.0,-100.00,SSE,166,2.0,8.0,46,0.00,,,0.00,0.000000,,2013-02-05 09:52:00,
2013-02-05 03:01:00,35.0,16.0,-100.00,SSE,166,2.0,8.0,46,0.00,,,0.00,0.000000,,2013-02-05 10:01:00,
2013-02-05 03:32:00,35.0,17.0,-100.00,SSE,165,7.0,11.0,48,0.00,,,0.00,0.000000,,2013-02-05 10:32:00,
2013-02-05 03:42:00,35.0,17.0,-100.00,SSE,165,7.0,11.0,48,0.00,,,0.00,0.000000,,2013-02-05 10:42:00,
2013-02-05 03:52:00,35.0,17.0,-100.00,SSE,165,7.0,11.0,48,0.00,,,0.00,0.000000,,2013-02-05 10:52:00,
2013-02-05 04:01:00,35.0,17.0,-100.00,SSE,165,7.0,11.0,48,0.00,,,0.00,0.000000,,2013-02-05 11:01:00,
2013-02-05 04:32:00,35.0,19.0,-100.00,SE,146,8.0,11.0,51,0.00,,,0.00,0.000000,,2013-02-05 11:32:00,
2013-02-05 04:42:00,35.0,19.0,-100.00,SE,146,8.0,11.0,51,0.00,,,0.00,0.000000,,2013-02-05 11:42:00,
2013-02-05 04:52:00,35.0,19.0,-100.00,SE,146,8.0,11.0,51,0.00,,,0.00,0.000000,,2013-02-05 11:52:00,
2013-02-05 05:01:00,35.0,19.0,-100.00,SE,146,8.0,11.0,51,0.00,,,0.00,0.000000,,2013-02-05 12:01:00,
2013-02-05 05:32:00,32.0,19.0,-100.00,SW,222,2.0,12.0,57,0.00,,,0.00,0.000000,,2013-02-05 12:32:00,
2013-02-05 05:42:00,32.0,19.0,-100.00,SW,222,2.0,12.0,57,0.00,,,0.00,0.000000,,2013-02-05 12:42:00,
2013-02-05 05:52:00,32.0,19.0,-100.00,SW,222,2.0,12.0,57,0.00,,,0.00,0.000000,,2013-02-05 12:52:00,
2013-02-05 06:01:00,32.0,19.0,-100.00,SW,222,2.0,12.0,57,0.00,,,0.00,0.000000,,2013-02-05 13:01:00,
2013-02-05 06:32:00,33.0,21.0,-100.00,North,6,1.0,7.0,60,0.00,,,0.00,0.000000,,2013-02-05 13:32:00,
2013-02-05 06:42:00,33.0,21.0,-100.00,North,6,1.0,7.0,60,0.00,,,0.00,0.000000,,2013-02-05 13:42:00,
2013-02-05 06:52:00,33.0,21.0,-100.00,North,6,1.0,7.0,60,0.00,,,0.00,0.000000,,2013-02-05 13:52:00,
2013-02-05 07:01:00,33.0,21.0,-100.00,North,6,1.0,7.0,60,0.00,,,0.00,0.000000,,2013-02-05 14:01:00,
2013-02-05 07:32:00,33.0,20.0,-100.00,West,274,0.0,5.0,58,0.00,,,0.00,0.000000,,2013-02-05 14:32:00,
2013-02-05 07:42:00,33.0,20.0,-100.00,West,274,0.0,5.0,58,0.00,,,0.00,0.000000,,2013-02-05 14:42:00,
2013-02-05 07:52:00,33.0,20.0,-100.00,West,274,0.0,5.0,58,0.00,,,0.00,0.000000,,2013-02-05 14:52:00,
2013-02-05 08:01:00,33.0,20.0,-100.00,West,274,0.0,5.0,58,0.00,,,0.00,0.000000,,2013-02-05 15:01:00,
2013-02-05 08:32:00,33.0,20.0,-100.00,ENE,65,1.0,5.0,59,0.00,,,0.00,1.000000,,2013-02-05 15:32:00,
2013-02-05 08:42:00,33.0,20.0,-100.00,ENE,65,1.0,5.0,59,0.00,,,0.00,1.000000,,2013-02-05 15:42:00,
2013-02-05 08:52:00,33.0,20.0,-100.00,ENE,65,1.0,5.0,59,0.00,,,0.00,1.000000,,2013-02-05 15:52:00,
2013-02-05 09:01:00,33.0,20.0,-100.00,ENE,65,1.0,5.0,59,0.00,,,0.00,1.000000,,2013-02-05 16:01:00,
2013-02-05 09:32:00,34.0,20.0,-100.00,NW,316,0.0,8.0,56,0.00,,,-99.99,36.000000,,2013-02-05 16:32:00,
2013-02-05 09:42:00,34.0,20.0,-100.00,NW,316,0.0,8.0,56,0.00,,,-99.99,36.000000,,2013-02-05 16:42:00,
2013-02-05 09:52:00,34.0,20.0,-100.00,NW,316,0.0,8.0,56,0.00,,,-99.99,36.000000,,2013-02-05 16:52:00,
2013-02-05 10:01:00,34.0,20.0,-100.00,NW,316,0.0,8.0,56,0.00,,,-99.99,36.000000,,2013-02-05 17:01:00,
2013-02-05 10:32:00,37.0,21.0,-100.00,SW,222,6.0,13.0,51,0.00,,,-99.99,95.000000,,2013-02-05 17:32:00,
2013-02-05 10:42:00,37.0,21.0,-100.00,SW,222,6.0,13.0,51,0.00,,,-99.99,95.000000,,2013-02-05 17:42:00,
2013-02-05 10:52:00,37.0,21.0,-100.00,SW,222,6.0,13.0,51,0.00,,,-99.99,95.000000,,2013-02-05 17:52:00,
2013-02-05 11:01:00,37.0,21.0,-100.00,SW,222,6.0,13.0,51,0.00,,,-99.99,95.000000,,2013-02-05 18:01:00,
2013-02-05 11:32:00,42.0,26.0,-100.00,SE,129,1.0,13.0,53,0.00,,,0.00,191.000000,,2013-02-05 18:32:00,
2013-02-05 11:42:00,42.0,26.0,-100.00,SE,129,1.0,13.0,53,0.00,,,0.00,191.000000,,2013-02-05 18:42:00,
2013-02-05 11:52:00,42.0,26.0,-100.00,SE,129,1.0,13.0,53,0.00,,,0.00,191.000000,,2013-02-05 18:52:00,
2013-02-05 12:01:00,42.0,26.0,-100.00,SE,129,1.0,13.0,53,0.00,,,0.00,191.000000,,2013-02-05 19:01:00,
2013-02-05 12:32:00,48.0,24.0,-100.00,SSW,204,12.0,12.0,39,0.00,,,0.00,577.000000,,2013-02-05 19:32:00,
2013-02-05 12:42:00,48.0,24.0,-100.00,SSW,204,12.0,12.0,39,0.00,,,0.00,577.000000,,2013-02-05 19:42:00,
2013-02-05 12:52:00,48.0,24.0,-100.00,SSW,204,12.0,12.0,39,0.00,,,0.00,577.000000,,2013-02-05 19:52:00,
2013-02-05 13:01:00,48.0,24.0,-100.00,SSW,204,12.0,12.0,39,0.00,,,0.00,577.000000,,2013-02-05 20:01:00,
2013-02-05 13:32:00,43.0,22.0,-100.00,South,185,19.0,20.0,43,-99.99,,,0.00,432.000000,,2013-02-05 20:32:00,
2013-02-05 13:42:00,43.0,22.0,-100.00,South,185,19.0,20.0,43,-99.99,,,0.00,432.000000,,2013-02-05 20:42:00,
2013-02-05 13:52:00,43.0,22.0,-100.00,South,185,19.0,20.0,43,-99.99,,,0.00,432.000000,,2013-02-05 20:52:00,
2013-02-05 14:01:00,43.0,22.0,-100.00,South,185,19.0,20.0,43,-99.99,,,0.00,432.000000,,2013-02-05 21:01:00,
2013-02-05 14:22:00,44.0,25.0,-100.00,SSW,208,4.0,25.0,47,0.00,,,0.00,149.000000,,2013-02-05 21:22:00,
2013-02-05 14:32:00,44.0,25.0,-100.00,SSW,208,4.0,25.0,47,0.00,,,0.00,149.000000,,2013-02-05 21:32:00,
2013-02-05 14:42:00,44.0,25.0,-100.00,SSW,208,4.0,25.0,47,0.00,,,0.00,149.000000,,2013-02-05 21:42:00,
2013-02-05 14:52:00,44.0,25.0,-100.00,SSW,208,4.0,25.0,47,0.00,,,0.00,149.000000,,2013-02-05 21:52:00,
2013-02-05 15:01:00,44.0,25.0,-100.00,SSW,208,4.0,25.0,47,0.00,,,0.00,149.000000,,2013-02-05 22:01:00,
2013-02-05 15:22:00,45.0,23.0,-100.00,ESE,120,10.0,23.0,42,0.00,,,0.00,313.000000,,2013-02-05 22:22:00,
2013-02-05 15:32:00,45.0,23.0,-100.00,ESE,120,10.0,23.0,42,0.00,,,0.00,313.000000,,2013-02-05 22:32:00,
2013-02-05 15:42:00,45.0,23.0,-100.00,ESE,120,10.0,23.0,42,0.00,,,0.00,313.000000,,2013-02-05 22:42:00,
2013-02-05 15:52:00,45.0,23.0,-100.00,ESE,120,10.0,23.0,42,0.00,,,0.00,313.000000,,2013-02-05 22:52:00,
2013-02-05 16:01:00,45.0,23.0,-100.00,ESE,120,10.0,23.0,42,0.00,,,0.00,313.000000,,2013-02-05 23:01:00,
2013-02-05 16:22:00,44.0,23.0,-100.00,SSE,154,8.0,14.0,43,0.00,,,0.00,173.000000,,2013-02-05 23:22:00,
2013-02-05 16:32:00,44.0,23.0,-100.00,SSE,154,8.0,14.0,43,0.00,,,0.00,173.000000,,2013-02-05 23:32:00,
2013-02-05 16:42:00,44.0,23.0,-100.00,SSE,154,8.0,14.0,43,0.00,,,0.00,173.000000,,2013-02-05 23:42:00,
2013-02-05 16:52:00,44.0,23.0,-100.00,SSE,154,8.0,14.0,43,0.00,,,0.00,173.000000,,2013-02-05 23:52:00,
2013-02-05 17:01:00,44.0,23.0,-100.00,SSE,154,8.0,14.0,43,0.00,,,0.00,173.000000,,2013-02-06 00:01:00,
2013-02-05 17:32:00,41.0,21.0,-100.00,SW,220,6.0,12.0,45,0.00,,,0.00,84.000000,,2013-02-06 00:32:00,
2013-02-05 17:42:00,41.0,21.0,-100.00,SW,220,6.0,12.0,45,0.00,,,0.00,84.000000,,2013-02-06 00:42:00,
2013-02-05 17:52:00,41.0,21.0,-100.00,SW,220,6.0,12.0,45,0.00,,,0.00,84.000000,,2013-02-06 00:52:00,
2013-02-05 18:01:00,41.0,21.0,-100.00,SW,220,6.0,12.0,45,0.00,,,0.00,84.000000,,2013-02-06 01:01:00,
2013-02-05 18:32:00,39.0,22.0,-100.00,SW,229,7.0,13.0,50,0.00,,,0.00,14.000000,,2013-02-06 01:32:00,
2013-02-05 18:42:00,39.0,22.0,-100.00,SW,229,7.0,13.0,50,0.00,,,0.00,14.000000,,2013-02-06 01:42:00,
2013-02-05 18:52:00,39.0,22.0,-100.00,SW,229,7.0,13.0,50,0.00,,,0.00,14.000000,,2013-02-06 01:52:00,
2013-02-05 19:01:00,39.0,22.0,-100.00,SW,229,7.0,13.0,50,0.00,,,0.00,14.000000,,2013-02-06 02:01:00,
2013-02-05 19:32:00,37.0,20.0,-100.00,ESE,114,0.0,9.0,50,0.00,,,0.00,0.000000,,2013-02-06 02:32:00,
2013-02-05 19:42:00,37.0,20.0,-100.00,ESE,114,0.0,9.0,50,0.00,,,0.00,0.000000,,2013-02-06 02:42:00,
2013-02-05 19:52:00,37.0,20.0,-100.00,ESE,114,0.0,9.0,50,0.00,,,0.00,0.000000,,2013-02-06 02:52:00,
2013-02-05 20:02:00,37.0,20.0,-100.00,ESE,114,0.0,9.0,50,0.00,,,0.00,0.000000,,2013-02-06 03:02:00,
2013-02-05 20:32:00,36.0,21.0,-100.00,SW,236,8.0,9.0,55,0.00,,,0.00,0.000000,,2013-02-06 03:32:00,
2013-02-05 20:42:00,36.0,21.0,-100.00,SW,236,8.0,9.0,55,0.00,,,0.00,0.000000,,2013-02-06 03:42:00,
2013-02-05 20:52:00,36.0,21.0,-100.00,SW,236,8.0,9.0,55,0.00,,,0.00,0.000000,,2013-02-06 03:52:00,
2013-02-05 21:01:00,36.0,21.0,-100.00,SW,236,8.0,9.0,55,0.00,,,0.00,0.000000,,2013-02-06 04:01:00,
2013-02-05 21:32:00,36.0,21.0,-100.00,NNW,336,7.0,12.0,54,0.00,,,0.00,0.000000,,2013-02-06 04:32:00,
2013-02-05 21:42:00,36.0,21.0,-100.00,NNW,336,7.0,12.0,54,0.00,,,0.00,0.000000,,2013-02-06 04:42:00,
2013-02-05 21:52:00,36.0,21.0,-100.00,NNW,336,7.0,12.0,54,0.00,,,0.00,0.000000,,2013-02-06 04:52:00,
2013-02-05 22:01:00,36.0,21.0,-100.00,NNW,336,7.0,12.0,54,0.00,,,0.00,0.000000,,2013-02-06 05:01:00,
2013-02-05 22:32:00,32.0,20.0,-100.00,SW,234,7.0,14.0,60,0.00,,,0.00,0.000000,,2013-02-06 05:32:00,
2013-02-05 22:42:00,32.0,20.0,-100.00,SW,234,7.0,14.0,60,0.00,,,0.00,0.000000,,2013-02-06 05:42:00,
2013-02-05 22:53:00,32.0,20.0,-100.00,SW,234,7.0,14.0,60,0.00,,,0.00,0.000000,,2013-02-06 05:53:00,
2013-02-05 23:01:00,32.0,20.0,-100.00,SW,234,7.0,14.0,60,0.00,,,0.00,0.000000,,2013-02-06 06:01:00,
2013-02-05 23:22:00,33.0,19.0,-100.00,West,269,4.0,10.0,57,0.00,,,0.00,0.000000,,2013-02-06 06:22:00,
2013-02-05 23:32:00,33.0,19.0,-100.00,West,269,4.0,10.0,57,0.00,,,0.00,0.000000,,2013-02-06 06:32:00,
2013-02-05 23:42:00,33.0,19.0,-100.00,West,269,4.0,10.0,57,0.00,,,0.00,0.000000,,2013-02-06 06:42:00,
2013-02-05 23:52:00,33.0,19.0,-100.00,West,269,4.0,10.0,57,0.00,,,0.00,0.000000,,2013-02-06 06:52:00,